Point Hope, AK

5:39 AM AKDT on March 25, 2017 (GMT -0800)
Point Hope

Weather History for PAPO - January, 2013

Change the Weather History Date:

Wednesday, January 2, 2013

  Actual Average Record
Temperature  
Mean Temperature 10 °F -  
Max Temperature 14 °F 2 °F 33 °F (2005)
Min Temperature 5 °F -3 °F -20 °F (2000)
Degree Days  
Heating Degree Days 56    
Moisture  
Dew Point 3 °F    
Average Humidity 79    
Maximum Humidity 86    
Minimum Humidity 72    
Precipitation  
Precipitation 0.00 in - - ()
Sea Level Pressure  
Sea Level Pressure 29.40 in    
Wind  
Wind Speed 31 mph (NE)    
Max Wind Speed 41 mph    
Max Gust Speed 52 mph    
Visibility 5 miles    
Events      
Averages and records for this station are not official NWS values.
T = Trace of Precipitation, MM = Missing Value Source: NWS Daily Summary

Daily Weather History Graph

Daily Weather History Graph

Search for Another Location

Airport or City:

Trip Planner

Search our weather history database for the weather conditions in past years. The results will help you decide how hot, cold, wet, or windy it might be!

Date:

Astronomy

Jan. 02, 2013 Rise Set
Actual Time 1:39 PM AKST 2:43 PM AKST
Civil Twilight 11:27 AM AKST 4:56 PM AKST
Nautical Twilight 9:58 AM AKST 6:25 PM AKST
Astronomical Twilight 8:46 AM AKST 7:37 PM AKST
Moon No Moon Rise 12:26 PM AKST (1/2)
Length of Visible Light 5h 29m
Length of Day
1h 04m
Waning Gibbous, 74% of the Moon is Illuminated
Jan 2
Waning Gibbous
Jan 4
Last Quarter
Jan 11
New
Jan 18
First Quarter
Jan 26
Full

Hourly Weather History & Observations

Time (AKST) Temp. Windchill Dew Point Humidity Pressure Visibility Wind Dir Wind Speed Gust Speed Precip Events Conditions
12:16 AM 14.0 °F -4.3 °F 10.4 °F 86% 29.29 in 6.0 mi NE 21.9 mph 29.9 mph N/A   Overcast
12:36 AM 12.2 °F -8.6 °F 8.6 °F 85% 29.29 in 10.0 mi ENE 27.6 mph - N/A   Overcast
12:56 AM 12.2 °F -8.2 °F 8.6 °F 85% 29.30 in 5.0 mi NE 26.5 mph 34.5 mph N/A   Overcast
1:16 AM 14.0 °F -3.9 °F 8.6 °F 79% 29.32 in 9.0 mi NE 20.7 mph 28.8 mph N/A   Overcast
1:36 AM 14.0 °F -5.5 °F 8.6 °F 79% 29.30 in 5.0 mi NE 25.3 mph 34.5 mph N/A   Mostly Cloudy
1:56 AM 12.2 °F -6.7 °F 8.6 °F 85% 29.31 in 10.0 mi NE 21.9 mph 31.1 mph N/A   Mostly Cloudy
2:16 AM 14.0 °F -2.5 °F 10.4 °F 86% 29.32 in 10.0 mi NE 17.3 mph 23.0 mph N/A   Mostly Cloudy
2:36 AM 12.2 °F -10.5 °F 8.6 °F 85% 29.30 in 5.0 mi NNE 34.5 mph 40.3 mph N/A   Mostly Cloudy
2:56 AM 12.2 °F -10.8 °F 8.6 °F 85% 29.30 in 3.0 mi NE 35.7 mph 41.4 mph N/A   Overcast
3:16 AM 10.4 °F -12.3 °F 6.8 °F 85% 29.31 in 5.0 mi NNE 32.2 mph 40.3 mph N/A   Mostly Cloudy
3:36 AM 10.4 °F -12.0 °F 6.8 °F 85% 29.31 in 2.5 mi NE 31.1 mph 43.7 mph N/A   Partly Cloudy
3:56 AM 8.6 °F -15.7 °F 5.0 °F 85% 29.31 in 3.0 mi NNE 35.7 mph 42.6 mph N/A   Partly Cloudy
4:16 AM 8.6 °F -16.6 °F 5.0 °F 85% 29.30 in 1.8 mi NE 39.1 mph 48.3 mph N/A   Overcast
4:36 AM 8.6 °F -16.3 °F 3.2 °F 79% 29.32 in 2.0 mi NE 38.0 mph 47.2 mph N/A   Overcast
4:56 AM 8.6 °F -14.1 °F 3.2 °F 79% 29.34 in 3.0 mi NE 29.9 mph 40.3 mph N/A   Overcast
5:16 AM 8.6 °F -13.8 °F 5.0 °F 85% 29.35 in 4.0 mi NE 28.8 mph 36.8 mph N/A   Overcast
5:36 AM 8.6 °F -13.4 °F 5.0 °F 85% 29.35 in 3.0 mi NE 27.6 mph 34.5 mph N/A   Overcast
5:56 AM 8.6 °F -15.7 °F 3.2 °F 79% 29.34 in 2.5 mi NE 35.7 mph 42.6 mph N/A   Overcast
6:16 AM 8.6 °F -16.3 °F 3.2 °F 79% 29.34 in 3.0 mi NE 38.0 mph 43.7 mph N/A   Overcast
6:36 AM 8.6 °F -15.1 °F 3.2 °F 79% 29.34 in 3.0 mi NNE 33.4 mph 44.9 mph N/A   Overcast
6:56 AM 8.6 °F -16.0 °F 3.2 °F 79% 29.33 in 1.5 mi NE 36.8 mph 50.6 mph N/A   Overcast
7:16 AM 10.4 °F -11.4 °F 3.2 °F 73% 29.36 in 5.0 mi NE 28.8 mph 34.5 mph N/A   Overcast
7:36 AM 10.4 °F -12.7 °F 5.0 °F 79% 29.35 in 3.0 mi NNE 33.4 mph 40.3 mph N/A   Overcast
8:16 AM 8.6 °F -15.4 °F 3.2 °F 79% 29.36 in 4.0 mi NNE 34.5 mph 40.3 mph N/A   Overcast
8:36 AM 8.6 °F -16.6 °F 3.2 °F 79% 29.35 in 2.0 mi NE 39.1 mph 47.2 mph N/A   Overcast
8:56 AM 8.6 °F -16.6 °F 3.2 °F 79% 29.35 in 1.8 mi NE 39.1 mph 48.3 mph N/A   Overcast
9:16 AM 8.6 °F -16.0 °F 3.2 °F 79% 29.36 in 1.5 mi NE 36.8 mph 44.9 mph N/A   Overcast
9:36 AM 8.6 °F -16.3 °F 5.0 °F 85% 29.36 in 1.5 mi NE 38.0 mph 46.0 mph N/A   Overcast
9:56 AM 8.6 °F -14.1 °F 3.2 °F 79% 29.37 in 1.5 mi NE 29.9 mph 48.3 mph N/A   Overcast
10:16 AM 8.6 °F -15.4 °F 5.0 °F 85% 29.37 in 1.2 mi NE 34.5 mph 47.2 mph N/A   Overcast
10:36 AM 8.6 °F -16.0 °F 5.0 °F 85% 29.37 in 1.5 mi NE 36.8 mph 49.5 mph N/A   Overcast
10:56 AM 8.6 °F -15.7 °F 3.2 °F 79% 29.38 in 1.2 mi NE 35.7 mph 49.5 mph N/A   Overcast
11:16 AM 8.6 °F -15.7 °F 5.0 °F 85% 29.38 in 1.5 mi NE 35.7 mph 49.5 mph N/A   Overcast
11:36 AM 8.6 °F -17.1 °F 3.2 °F 79% 29.38 in 1.5 mi NNE 41.4 mph 51.8 mph N/A   Overcast
11:56 AM 8.6 °F -15.7 °F 5.0 °F 85% 29.38 in 1.8 mi NE 35.7 mph 50.6 mph N/A   Overcast
12:16 PM 8.6 °F -16.6 °F 3.2 °F 79% 29.38 in 1.8 mi NNE 39.1 mph 49.5 mph N/A   Overcast
12:36 PM 8.6 °F -16.0 °F 3.2 °F 79% 29.39 in 2.5 mi NE 36.8 mph 47.2 mph N/A   Overcast
12:56 PM 8.6 °F -15.7 °F 3.2 °F 79% 29.40 in 3.0 mi NNE 35.7 mph 44.9 mph N/A   Overcast
1:16 PM 8.6 °F -15.7 °F 3.2 °F 79% 29.40 in 4.0 mi NE 35.7 mph 44.9 mph N/A   Overcast
1:56 PM 10.4 °F -13.0 °F 3.2 °F 73% 29.41 in 7.0 mi NNE 34.5 mph 41.4 mph N/A   Overcast
2:16 PM 10.4 °F -12.0 °F 3.2 °F 73% 29.42 in 7.0 mi NE 31.1 mph 41.4 mph N/A   Overcast
2:36 PM 8.6 °F -15.4 °F 3.2 °F 79% 29.42 in 4.0 mi NE 34.5 mph 42.6 mph N/A   Overcast
2:56 PM 8.6 °F -15.7 °F 3.2 °F 79% 29.42 in 5.0 mi NNE 35.7 mph 44.9 mph N/A   Overcast
3:16 PM 8.6 °F -16.6 °F 3.2 °F 79% 29.42 in 4.0 mi NNE 39.1 mph 43.7 mph N/A   Overcast
3:36 PM 8.6 °F -16.3 °F 1.4 °F 73% 29.43 in 3.0 mi NE 38.0 mph 46.0 mph N/A   Overcast
4:36 PM 8.6 °F -15.7 °F 3.2 °F 79% 29.44 in 3.0 mi NNE 35.7 mph 48.3 mph N/A   Overcast
4:56 PM 8.6 °F -16.6 °F 1.4 °F 73% 29.44 in 5.0 mi NE 39.1 mph 46.0 mph N/A   Overcast
5:16 PM 8.6 °F -16.3 °F 1.4 °F 73% 29.45 in 5.0 mi NNE 38.0 mph 47.2 mph N/A   Overcast
5:36 PM 8.6 °F -15.7 °F 1.4 °F 73% 29.45 in 5.0 mi NNE 35.7 mph 44.9 mph N/A   Overcast
5:56 PM 8.6 °F -15.4 °F 1.4 °F 73% 29.45 in 8.0 mi NE 34.5 mph 43.7 mph N/A   Overcast
6:16 PM 8.6 °F -15.4 °F 1.4 °F 73% 29.45 in 10.0 mi NNE 34.5 mph 43.7 mph N/A   Overcast
6:36 PM 6.8 °F -18.2 °F 1.4 °F 79% 29.46 in 10.0 mi NNE 35.7 mph 40.3 mph N/A   Overcast
6:56 PM 6.8 °F -18.5 °F 1.4 °F 79% 29.46 in 10.0 mi NNE 36.8 mph 41.4 mph N/A   Overcast
7:16 PM 6.8 °F -18.2 °F -0.4 °F 72% 29.46 in 10.0 mi NNE 35.7 mph 41.4 mph N/A   Overcast
7:36 PM 6.8 °F -17.9 °F 1.4 °F 79% 29.47 in 10.0 mi NNE 34.5 mph 39.1 mph N/A   Overcast
7:56 PM 6.8 °F -17.6 °F -0.4 °F 72% 29.47 in 10.0 mi NNE 33.4 mph 41.4 mph N/A   Overcast
8:16 PM 6.8 °F -17.3 °F -0.4 °F 72% 29.48 in 10.0 mi NNE 32.2 mph 41.4 mph N/A   Overcast
8:36 PM 6.8 °F -16.9 °F -0.4 °F 72% 29.48 in 10.0 mi NNE 31.1 mph 36.8 mph N/A   Overcast
8:56 PM 6.8 °F -17.3 °F -0.4 °F 72% 29.48 in 10.0 mi NNE 32.2 mph 39.1 mph N/A   Overcast
9:16 PM 6.8 °F -17.9 °F -0.4 °F 72% 29.48 in 10.0 mi NNE 34.5 mph - N/A   Overcast
9:36 PM 6.8 °F -17.3 °F -0.4 °F 72% 29.49 in 10.0 mi NNE 32.2 mph 36.8 mph N/A   Overcast
9:56 PM 6.8 °F -16.9 °F -0.4 °F 72% 29.50 in 9.0 mi NNE 31.1 mph 35.7 mph N/A   Overcast
10:16 PM 6.8 °F -16.6 °F -0.4 °F 72% 29.50 in 5.0 mi NNE 29.9 mph 35.7 mph N/A   Overcast
10:36 PM 6.8 °F -15.9 °F -0.4 °F 72% 29.51 in 5.0 mi NNE 27.6 mph 36.8 mph N/A   Overcast
10:56 PM 5.0 °F -18.7 °F -0.4 °F 78% 29.51 in 6.0 mi NNE 28.8 mph 36.8 mph N/A   Overcast
11:16 PM 5.0 °F -19.0 °F -0.4 °F 78% 29.51 in 8.0 mi NNE 29.9 mph 33.4 mph N/A   Overcast
11:36 PM 5.0 °F -18.7 °F -0.4 °F 78% 29.52 in 7.0 mi NNE 28.8 mph - N/A   Overcast
11:56 PM 5.0 °F -17.9 °F -2.2 °F 72% 29.53 in 10.0 mi NNE 26.5 mph 34.5 mph N/A   Overcast